Back to catalog

ONEWEB-0525

AliveCommunicationsPO
NORAD 54143·PAYLOAD·🇬🇧 United Kingdom

Launched Oct 22, 2022 from Satish Dhawan Space Centre

Loading…

Next Passes (next 24 hours)

TLE

FreshSource: CelesTrak SupGP

Epoch: Sep 14, 2026, 15:34 UTC

1 54143C 22138AG  26257.64913611 -.00000538  00000+0 -13466-2 0  2572
2 54143  87.9110 287.1479 0001974  82.9366  30.6696 13.19724324    15

Track ONEWEB-0525 in real time with AllMySat

Download on the App Store